TimeSAST,TemperatureF,Dew PointF,Humidity,Sea Level PressureIn,VisibilityMPH,Wind Direction,Wind SpeedMPH,Gust SpeedMPH,PrecipitationIn,Events,Conditions,WindDirDegrees,DateUTC
12:00 AM,86.0,41.0,20,29.92,-9999.0,SW,8.1,-,N/A,,Unknown,220,2013-01-23 22:00:00
1:00 AM,82.4,42.8,25,29.95,-9999.0,SW,8.1,-,N/A,,Clear,230,2013-01-23 23:00:00
2:00 AM,80,45,19,,25,SW,4.6,,,,Scattered Clouds,220,2013-01-24 00:00:00
2:00 AM,78.8,44.6,30,29.92,-9999.0,SW,3.5,-,N/A,,Clear,220,2013-01-24 00:00:00
3:00 AM,73.4,44.6,36,29.95,-9999.0,WNW,4.6,-,N/A,,Clear,290,2013-01-24 01:00:00
4:00 AM,75.2,42.8,31,29.92,-9999.0,SW,5.8,-,N/A,,Clear,230,2013-01-24 02:00:00
5:00 AM,75,44,23,,25,West,2.3,,,,Scattered Clouds,270,2013-01-24 03:00:00
5:00 AM,73.4,42.8,33,29.95,-9999.0,West,2.3,-,N/A,,Clear,270,2013-01-24 03:00:00
6:00 AM,71.6,44.6,38,29.95,-9999.0,WSW,4.6,-,N/A,,Clear,240,2013-01-24 04:00:00
6:31 AM,75.2,44.6,34,29.95,-9999.0,WSW,5.8,-,N/A,,Clear,240,2013-01-24 04:31:00
7:00 AM,78.8,44.6,30,29.98,-9999.0,SW,3.5,-,N/A,,Clear,230,2013-01-24 05:00:00
8:00 AM,82,44,16,,25,SW,6.9,,,,Clear,220,2013-01-24 06:00:00
8:00 AM,82.4,42.8,25,29.98,-9999.0,SW,5.8,-,N/A,,Clear,220,2013-01-24 06:00:00
8:32 AM,86.0,44.6,23,29.98,-9999.0,South,4.6,-,N/A,,Clear,190,2013-01-24 06:32:00
9:00 AM,87.8,44.6,22,29.98,-9999.0,SW,3.5,-,N/A,,Clear,220,2013-01-24 07:00:00
10:00 AM,89.6,44.6,21,29.98,-9999.0,South,3.5,-,N/A,,Clear,190,2013-01-24 08:00:00
10:34 AM,95.0,44.6,18,29.98,-9999.0,SW,3.5,-,N/A,,Clear,220,2013-01-24 08:34:00
11:00 AM,96,44,9,,25,West,3.5,,,,Scattered Clouds,260,2013-01-24 09:00:00
11:00 AM,95.0,42.8,16,29.98,-9999.0,West,3.5,-,N/A,,Clear,260,2013-01-24 09:00:00
12:00 PM,98.6,39.2,13,29.95,-9999.0,SSW,4.6,-,N/A,,Clear,210,2013-01-24 10:00:00
12:18 PM,102.2,41.0,12,29.95,-9999.0,SSW,3.5,-,N/A,,Clear,200,2013-01-24 10:18:00
1:00 PM,100.4,39.2,12,29.95,-9999.0,SSE,6.9,-,N/A,,Clear,160,2013-01-24 11:00:00
2:00 PM,103,41,6,,25,South,11.5,,,,Scattered Clouds,180,2013-01-24 12:00:00
2:00 PM,102.2,41.0,12,29.92,-9999.0,South,10.4,-,N/A,,Clear,180,2013-01-24 12:00:00
3:00 PM,104.0,37.4,10,29.89,6.2,South,12.7,-,N/A,,Partly Cloudy,180,2013-01-24 13:00:00
4:00 PM,104.0,37.4,10,29.86,6.2,SSW,13.8,-,N/A,,Partly Cloudy,200,2013-01-24 14:00:00
5:00 PM,104,38,5,,25,SSW,16.1,,,,Scattered Clouds,200,2013-01-24 15:00:00
5:00 PM,104.0,37.4,10,29.86,6.2,SSW,16.1,-,N/A,,Partly Cloudy,200,2013-01-24 15:00:00
6:00 PM,102.2,37.4,11,29.83,6.2,WSW,9.2,-,N/A,,Partly Cloudy,250,2013-01-24 16:00:00
7:00 PM,93.2,48.2,21,29.89,6.2,NNE,15.0,-,N/A,,Partly Cloudy,20,2013-01-24 17:00:00
8:00 PM,90,50,16,,25,North,15.0,,,,Scattered Clouds,0,2013-01-24 18:00:00
8:00 PM,89.6,50.0,26,29.92,6.2,North,15.0,-,N/A,,Scattered Clouds,360,2013-01-24 18:00:00
9:00 PM,89.6,50.0,26,29.92,-9999.0,North,9.2,-,N/A,,Unknown,350,2013-01-24 19:00:00
10:00 PM,84.2,50.0,30,29.95,-9999.0,NNW,8.1,-,N/A,,Unknown,330,2013-01-24 20:00:00
11:00 PM,87,49,18,,,WSW,8.1,,,,,240,2013-01-24 21:00:00
11:00 PM,86.0,48.2,27,29.98,-9999.0,WSW,8.1,-,N/A,,Unknown,240,2013-01-24 21:00:00